EW5961 Weather Reports


Display with metric or nautical units.
time (UTC)temp
F
wind
direction
speed
MPH
gust
MPH
rain 1hr
in
rain 24hr
in
rain mn
in
humidity
%
barometer
mb
20181216074610 62 232 0.0 0.0 0.00 0.00 0.00 82 1021.3
20181216073218 62 232 0.0 0.0 0.00 0.00 0.00 82 1021.4
20181216071633 62 230 0.0 0.0 0.00 0.00 0.00 82 1021.6
20181216070220 62 225 0.0 0.0 0.00 0.00 0.00 82 1021.7
20181216064653 62 227 0.0 0.0 0.00 0.00 0.00 81 1021.8
20181216063102 62 224 0.0 0.0 0.00 0.00 0.00 81 1021.9
20181216061624 62 219 0.0 0.0 0.00 0.00 0.00 80 1022.1
20181216060052 63 211 0.0 0.0 0.00 0.00 0.00 79 1022.2
20181216054622 63 219 0.0 0.0 0.00 0.00 0.00 78 1022.3
20181216053035 64 220 0.0 0.0 0.00 0.00 0.00 77 1022.2
20181216051556 64 220 0.0 0.0 0.00 0.00 0.00 75 1022.4
20181216050054 65 216 0.0 0.0 0.00 0.00 0.00 74 1022.6
20181216044526 66 215 0.0 0.0 0.00 0.00 0.00 73 1022.8
20181216043028 66 231 0.0 0.0 0.00 0.00 0.00 73 1022.8
20181216041607 66 236 0.0 0.0 0.00 0.00 0.00 72 1022.7
20181216040018 66 241 0.0 0.0 0.00 0.00 0.00 71 1022.7
20181216034540 67 246 0.0 0.0 0.00 0.00 0.00 70 1022.5
20181216031517 67 254 0.0 0.0 0.00 0.00 0.00 69 1022.6
20181216030029 68 263 0.0 0.0 0.00 0.00 0.00 69 1022.5
20181216024508 68 275 0.0 0.0 0.00 0.00 0.00 68 1022.3
20181216023021 69 280 0.0 0.0 0.00 0.00 0.00 67 1022.2
20181216021504 69 279 0.0 0.0 0.00 0.00 0.00 66 1022.2
20181216020002 69 271 0.0 0.0 0.00 0.00 0.00 66 1022.1
20181216011817 70 277 0.0 0.0 0.00 0.00 0.00 64 1021.7
20181216010118 70 292 0.0 0.0 0.00 0.00 0.00 65 1021.6
20181216004708 70 266 0.0 0.0 0.00 0.00 0.00 64 1021.5
20181216003215 70 276 0.0 0.0 0.00 0.00 0.00 64 1021.3
20181216001756 71 286 0.0 0.0 0.00 0.00 0.00 63 1021.0
20181216000125 71 284 0.0 0.0 0.00 0.00 0.00 62 1020.8
20181215234655 72 289 0.0 0.0 0.00 0.00 0.00 60 1020.7
20181215233151 73 304 0.0 0.0 0.00 0.00 0.00 59 1020.5
20181215231644 73 317 0.0 0.0 0.00 0.00 0.00 58 1020.5
20181215230117 73 306 0.0 0.0 0.00 0.00 0.00 58 1020.3
20181215223219 74 306 0.0 0.0 0.00 0.00 0.00 57 1020.1
20181215214530 75 355 0.0 0.0 0.00 0.00 0.00 56 1020.0
20181215211604 75 294 0.0 0.0 0.00 0.00 0.00 55 1019.8
20181215210015 76 290 0.0 0.0 0.00 0.00 0.00 55 1019.8
20181215203056 77 329 0.0 0.0 0.00 0.00 0.00 55 1019.6
20181215200100 77 337 0.0 0.0 0.00 0.00 0.00 53 1019.6
20181215194559 79 346 0.0 0.0 0.00 0.00 0.00 51 1019.5
20181215191629 78 305 0.0 0.0 0.00 0.00 0.00 48 1019.7
20181215184640 78 360 0.0 0.0 0.00 0.00 0.00 51 1020.0
20181215183033 77 289 0.0 0.0 0.00 0.00 0.00 51 1020.4
20181215180025 77 332 0.0 0.0 0.00 0.00 0.00 52 1021.0
20181215173048 77 360 0.0 0.0 0.00 0.00 0.00 54 1021.5
20181215170055 76 304 0.0 0.0 0.00 0.00 0.00 56 1021.9
20181215163029 76 307 0.0 0.0 0.00 0.00 0.00 56 1022.1
20181215160122 75 318 0.0 0.0 0.00 0.00 0.00 60 1022.0
20181215154510 75 319 0.0 0.0 0.00 0.00 0.00 61 1022.1
20181215151536 74 347 0.0 0.0 0.00 0.00 0.00 64 1022.2
20181215144620 71 300 0.0 0.0 0.00 0.00 0.00 71 1021.9
20181215143020 71 316 0.0 0.0 0.00 0.00 0.00 72 1021.8
20181215141627 70 315 0.0 0.0 0.00 0.00 0.00 72 1021.5
20181215140028 70 311 0.0 0.0 0.00 0.00 0.00 73 1021.2
20181215130050 69 290 0.0 0.0 0.00 0.00 0.00 75 1020.5
20181215124620 69 286 0.0 0.0 0.00 0.00 0.00 75 1020.3
20181215121652 69 302 0.0 0.0 0.00 0.00 0.00 75 1020.1
20181215120015 69 293 0.0 0.0 0.00 0.00 0.00 75 1020.0
20181215114725 69 313 0.0 0.0 0.00 0.00 0.00 75 1019.7
20181215113039 69 292 0.0 0.0 0.00 0.00 0.00 75 1019.6
20181215110103 69 302 0.0 0.0 0.00 0.00 0.00 76 1019.4
20181215103207 69 279 0.0 0.0 0.00 0.00 0.00 77 1019.3
20181215094608 69 290 0.0 0.0 0.00 0.00 0.00 76 1019.0
20181215091609 70 284 0.0 0.0 0.00 0.00 0.00 75 1018.9
20181215084645 70 278 0.0 0.0 0.00 0.00 0.00 74 1018.8
20181215081609 70 284 0.0 0.0 0.00 0.00 0.00 73 1018.7